This demonstration page uses our WeatherBlox Daily Observations layout. Learn more.

41.86663, -103.66717

Hourly Observations for June 9, 2019

Temp ( °F °C ) Dew Point ( °F °C ) Humidity (%) Winds ( mph kmh ) Pressure ( in mb ) Visibility ( mi km ) Precip ( " mm )
12:53 am 00:53 Cloudy 48 8.9 40 4.4 74 74 NNW 9 15 30.22 1023 10 16.0934 0 0
1:53 am 01:53 Cloudy 47 8.3 42 5.6 83 83 WNW 12 19 30.23 1024 10 16.0934 0 0
2:53 am 02:53 Cloudy 47 8.3 40 4.4 77 77 NW 10 17 30.25 1024 10 16.0934 0 0
3:53 am 03:53 Cloudy 47 8.3 41 5 80 80 WNW 8 13 30.27 1025 10 16.0934 0 0
4:53 am 04:53 Cloudy 47 8.3 41 5 80 80 WNW 8 13 30.29 1026 10 16.0934 0 0
5:53 am 05:53 Cloudy 47 8.3 41 5 80 80 WNW 7 11 30.32 1027 10 16.0934 0 0
6:53 am 06:53 Mostly Sunny 48 8.9 39 3.9 71 71 NW 12 19 30.35 1028 10 16.0934 0 0
7:53 am 07:53 Sunny 51 10.6 39 3.9 64 64 NW 6 9 30.36 1028 10 16.0934 0 0
8:53 am 08:53 Sunny 56 13.3 38 3.3 51 51 NNW 16 26 30.37 1029 10 16.0934 0 0
9:53 am 09:53 Mostly Sunny 58 14.4 39 3.9 50 50 NNW 15 24 30.38 1029 10 16.0934 0 0
10:53 am 10:53 Partly Cloudy 59 15 37 2.8 44 44 NW 14 22 30.38 1029 10 16.0934 0 0
11:53 am 11:53 Partly Cloudy 64 17.8 41 5 43 43 NNW 13 20 30.37 1028 10 16.0934 0 0
12:53 pm 12:53 Mostly Sunny 63 17.2 41 5 45 45 W 12 19 30.37 1028 10 16.0934 0 0
1:53 pm 13:53 Partly Cloudy 65 18.3 41 5 42 42 WNW 12 19 30.37 1028 10 16.0934 0 0
2:53 pm 14:53 Mostly Sunny 64 17.8 41 5 43 43 WNW 12 19 30.36 1028 10 16.0934 0 0
3:53 pm 15:53 Mostly Sunny 67 19.4 44 6.7 44 44 NW 16 26 30.35 1028 10 16.0934 0 0
4:53 pm 16:53 Mostly Sunny 66 18.9 43 6.1 43 43 NW 9 15 30.34 1028 10 16.0934 0 0
5:53 pm 17:53 Mostly Sunny 67 19.4 44 6.7 44 44 NW 10 17 30.34 1027 10 16.0934 0 0
6:53 pm 18:53 Sunny 66 18.9 42 5.6 42 42 NNW 12 19 30.33 1027 10 16.0934 0 0
7:53 pm 19:53 Sunny 60 15.6 38 3.3 44 44 NNW 7 11 30.34 1028 10 16.0934 0 0
8:53 pm 20:53 Clear 53 11.7 37 2.8 55 55 NNE 7 11 30.36 1028 10 16.0934 0 0
9:53 pm 21:53 Clear 49 9.4 38 3.3 66 66 NNE 8 13 30.39 1029 10 16.0934 0 0
10:53 pm 22:53 Clear 49 9.4 38 3.3 66 66 S 6 9 30.41 1030 10 16.0934 0 0
11:53 pm 23:53 Clear 45 7.2 37 2.8 74 74 E 7 11 30.41 1030 10 16.0934 0 0

Powered by AerisWeather